FW4052 Weather Reports


Display with metric or nautical units.
time (UTC)temp
F
wind
direction
speed
MPH
gust
MPH
rain 1hr
in
rain 24hr
in
rain mn
in
humidity
%
barometer
mb
20260507014518 57 177 2.0 5.0 0.00 0.00 0.00 81 1010.8
20260507013518 57 195 2.0 4.0 0.00 0.00 0.00 81 1010.9
20260507012518 57 167 1.0 4.0 0.00 0.00 0.00 81 1010.9
20260507011518 57 217 2.0 4.0 0.00 0.00 0.00 81 1011.0
20260507010526 57 163 2.0 5.0 0.00 0.00 0.00 81 1011.0
20260507005516 57 195 2.0 5.0 0.00 0.00 0.00 81 1011.0
20260507004516 57 229 2.0 5.0 0.00 0.00 0.00 81 1011.1
20260507003516 57 188 2.0 5.0 0.00 0.00 0.00 81 1011.1
20260507002516 57 197 2.0 6.0 0.00 0.00 0.00 81 1011.0
20260507001516 57 157 3.0 8.0 0.00 0.00 0.00 81 1011.0
20260507000516 57 181 2.0 6.0 0.00 0.00 0.00 81 1011.0
20260506235516 57 222 2.0 4.0 0.00 0.00 0.00 81 1011.0
20260506234517 57 238 2.0 5.0 0.00 0.00 0.00 81 1011.1
20260506233517 57 227 2.0 6.0 0.00 0.00 0.00 81 1011.1
20260506232517 57 219 2.0 5.0 0.00 0.00 0.00 80 1011.1
20260506231517 57 144 2.0 4.0 0.00 0.00 0.00 80 1011.2
20260506230517 57 160 3.0 6.0 0.00 0.00 0.00 80 1011.2
20260506225517 57 147 1.0 6.0 0.00 0.00 0.00 80 1011.3
20260506224518 57 208 2.0 6.0 0.00 0.00 0.00 80 1011.3
20260506223538 57 227 3.0 7.0 0.00 0.00 0.00 80 1011.3
20260506222538 57 228 3.0 6.0 0.00 0.00 0.00 80 1011.4
20260506221518 57 238 4.0 7.0 0.00 0.00 0.00 80 1011.5
20260506220518 57 262 2.0 7.0 0.00 0.00 0.00 80 1011.6
20260506215516 57 185 2.0 7.0 0.00 0.00 0.00 80 1011.5
20260506214556 56 238 2.0 4.0 0.00 0.00 0.00 80 1011.5
20260506213516 56 249 2.0 7.0 0.00 0.00 0.00 80 1011.4
20260506212516 56 182 2.0 6.0 0.00 0.00 0.00 80 1011.5
20260506211516 56 214 4.0 8.0 0.00 0.00 0.00 79 1011.5
20260506210536 57 230 3.0 8.0 0.00 0.00 0.00 79 1011.5
20260506205517 57 209 2.0 6.0 0.00 0.00 0.00 78 1011.5
20260506204516 57 188 3.0 7.0 0.00 0.00 0.00 78 1011.4
20260506203517 56 194 2.0 6.0 0.00 0.00 0.00 77 1011.4
20260506202517 56 209 3.0 8.0 0.00 0.00 0.00 78 1011.4
20260506201517 56 185 3.0 6.0 0.00 0.00 0.00 79 1011.4
20260506200537 56 179 4.0 7.0 0.00 0.00 0.00 79 1011.3
20260506195517 56 237 3.0 10.0 0.00 0.00 0.00 78 1011.3
20260506194537 56 189 4.0 9.0 0.00 0.00 0.00 78 1011.2
20260506193517 56 206 4.0 10.0 0.00 0.00 0.00 78 1011.1
20260506192518 56 221 3.0 8.0 0.00 0.00 0.00 78 1011.2
20260506191518 56 193 3.0 7.0 0.00 0.00 0.00 78 1011.2
20260506190535 55 225 4.0 10.0 0.00 0.00 0.00 79 1011.2
20260506185518 55 197 4.0 9.0 0.00 0.00 0.00 80 1011.1
20260506184515 55 194 5.0 9.0 0.00 0.00 0.00 80 1011.0
20260506183516 56 207 4.0 10.0 0.00 0.00 0.00 79 1011.2
20260506182516 55 233 3.0 9.0 0.00 0.00 0.00 80 1011.3
20260506181516 54 229 3.0 6.0 0.00 0.00 0.00 82 1011.1
20260506180516 53 219 3.0 9.0 0.00 0.00 0.00 85 1011.0
20260506175516 53 257 4.0 12.0 0.00 0.00 0.00 86 1010.9
20260506174536 54 199 4.0 13.0 0.00 0.00 0.00 85 1010.7
20260506173517 54 183 4.0 11.0 0.00 0.00 0.00 85 1010.7
20260506172517 53 222 3.0 8.0 0.00 0.00 0.00 88 1010.8
20260506171517 52 200 4.0 10.0 0.00 0.00 0.00 89 1010.9
20260506170516 52 226 3.0 7.0 0.00 0.00 0.00 92 1010.7
20260506165517 53 264 3.0 8.0 0.00 0.00 0.00 92 1010.8
20260506164537 53 221 3.0 7.0 0.00 0.00 0.00 91 1010.7
20260506163517 54 219 2.0 7.0 0.00 0.00 0.00 91 1010.6
20260506162518 54 176 3.0 6.0 0.00 0.00 0.00 91 1010.7
20260506161518 53 256 2.0 6.0 0.00 0.00 0.00 91 1010.6
20260506160518 53 178 3.0 7.0 0.00 0.00 0.00 92 1010.3
20260506155538 53 180 2.0 6.0 0.00 0.00 0.00 94 1010.1
20260506154515 52 147 3.0 6.0 0.00 0.00 0.00 94 1010.1
20260506153536 52 149 3.0 7.0 0.00 0.00 0.00 94 1010.3
20260506152515 52 196 2.0 4.0 0.00 0.00 0.00 95 1010.4
20260506151516 52 145 3.0 7.0 0.00 0.00 0.00 97 1010.3
20260506150516 51 229 1.0 3.0 0.00 0.00 0.00 98 1010.4
20260506145517 51 139 2.0 4.0 0.00 0.00 0.00 98 1010.2
20260506144517 51 135 4.0 8.0 0.00 0.00 0.00 97 1009.8
20260506143516 51 129 2.0 5.0 0.00 0.00 0.00 97 1010.1
20260506142517 51 132 3.0 7.0 0.00 0.00 0.00 98 1010.1
20260506141517 51 147 3.0 6.0 0.00 0.00 0.00 98 1010.1
20260506140517 51 160 1.0 5.0 0.00 0.00 0.00 98 1010.0
20260506135517 51 159 2.0 6.0 0.00 0.00 0.00 98 1009.9
20260506134517 51 145 2.0 4.0 0.00 0.00 0.00 98 1009.8
20260506133538 51 213 1.0 3.0 0.00 0.00 0.00 97 1009.9
20260506132518 51 140 2.0 5.0 0.00 0.00 0.00 96 1009.7
20260506131518 51 180 1.0 3.0 0.00 0.00 0.00 96 1009.8
20260506130518 51 123 1.0 3.0 0.00 0.00 0.00 96 1009.6
20260506125538 51 254 2.0 4.0 0.00 0.00 0.00 96 1009.6
20260506124515 51 134 3.0 7.0 0.00 0.00 0.00 95 1009.1
20260506123516 52 168 2.0 6.0 0.00 0.00 0.00 95 1009.4
20260506122516 52 185 2.0 4.0 0.00 0.00 0.00 95 1009.3
20260506121516 52 170 2.0 6.0 0.00 0.00 0.00 94 1009.2
20260506120536 52 172 3.0 9.0 0.00 0.00 0.00 94 1009.1
20260506115516 52 159 2.0 4.0 0.00 0.00 0.00 94 1009.1
20260506114557 52 156 1.0 3.0 0.00 0.00 0.00 94 1009.0
20260506113537 52 185 3.0 7.0 0.00 0.00 0.00 94 1009.0
20260506112537 52 207 1.0 3.0 0.00 0.00 0.00 94 1008.9
20260506111517 52 201 2.0 7.0 0.00 0.00 0.00 94 1008.8
20260506110517 52 140 1.0 3.0 0.00 0.00 0.00 94 1008.8
20260506105518 52 231 2.0 3.0 0.00 0.00 0.00 94 1008.7
20260506104538 52 241 2.0 7.0 0.00 0.00 0.00 94 1008.7
20260506103517 52 236 3.0 6.0 0.00 0.00 0.00 94 1008.6
20260506102518 52 211 3.0 7.0 0.00 0.00 0.00 94 1008.6
20260506101538 52 236 3.0 6.0 0.00 0.00 0.00 94 1008.5
20260506100538 52 246 3.0 8.0 0.00 0.00 0.00 95 1008.5
20260506095518 51 201 1.0 4.0 0.00 0.00 0.00 96 1008.5
20260506094538 51 236 3.0 7.0 0.00 0.00 0.00 96 1008.3
20260506093516 51 203 2.0 6.0 0.00 0.00 0.00 96 1008.2
20260506092515 51 168 2.0 5.0 0.00 0.00 0.00 96 1008.2
20260506091517 51 180 2.0 5.0 0.00 0.00 0.00 95 1008.1
20260506090557 51 201 1.0 4.0 0.00 0.00 0.00 95 1008.0
20260506085517 51 233 1.0 5.0 0.00 0.00 0.00 95 1007.8
20260506084517 51 230 2.0 6.0 0.00 0.00 0.00 95 1007.7
20260506083517 52 241 2.0 5.0 0.00 0.00 0.00 94 1007.6
20260506082558 52 216 2.0 4.0 0.00 0.00 0.00 94 1007.6
20260506081538 52 213 1.0 3.0 0.00 0.00 0.00 93 1007.5
20260506080517 52 205 2.0 4.0 0.00 0.00 0.00 93 1007.5
20260506072518 53 211 2.0 4.0 0.00 0.00 0.00 91 1007.2
20260506071536 53 233 2.0 4.0 0.00 0.00 0.00 91 1007.2
20260506070515 54 250 1.0 4.0 0.00 0.00 0.00 91 1007.1
20260506061516 55 265 4.0 8.0 0.00 0.00 0.00 88 1006.8
20260506060517 55 262 4.0 9.0 0.00 0.00 0.00 87 1006.8
20260506050518 58 247 4.0 8.0 0.00 0.00 0.00 84 1006.3
20260506044518 58 216 3.0 8.0 0.00 0.00 0.00 84 1006.2
20260506043518 59 174 2.0 4.0 0.00 0.00 0.00 84 1006.2
20260506042518 59 190 2.0 4.0 0.00 0.00 0.00 83 1006.1
20260506041519 59 161 2.0 5.0 0.00 0.00 0.00 83 1006.1
20260506040515 59 167 2.0 3.0 0.00 0.00 0.00 83 1006.1
20260506035516 60 160 2.0 4.0 0.00 0.00 0.00 83 1006.0
20260506034516 60 156 1.0 3.0 0.00 0.00 0.00 83 1005.9
20260506033516 60 151 2.0 4.0 0.00 0.00 0.00 81 1005.8
20260506032536 60 159 2.0 3.0 0.00 0.00 0.00 81 1005.8
20260506031516 60 160 2.0 4.0 0.00 0.00 0.00 81 1005.8
20260506030517 60 151 1.0 3.0 0.00 0.00 0.00 81 1005.7
20260506025518 60 133 1.0 3.0 0.00 0.00 0.00 81 1005.6
20260506024517 61 128 2.0 4.0 0.00 0.00 0.00 80 1005.6
20260506023517 61 114 2.0 5.0 0.00 0.00 0.00 79 1005.6
20260506022517 61 122 1.0 4.0 0.00 0.00 0.00 79 1005.6
20260506021518 61 119 2.0 4.0 0.00 0.00 0.00 79 1005.7
20260506020517 61 134 2.0 5.0 0.00 0.00 0.00 79 1005.7
20260506015517 61 116 2.0 5.0 0.00 0.00 0.00 78 1005.7